Weather History for Midland Airpark, TX

Change the Weather History Date:

Monday, April 2, 2012

  Actual Average (KMAF) Record (KMAF)
Temperature  
Mean Temperature 73 °F 60 °F  
Max Temperature 82 °F 75 °F 95 °F (2011)
Min Temperature 63 °F 45 °F 29 °F (1938)
Degree Days  
Heating Degree Days 0 6  
Month to date heating degree days 13  
Since 1 July heating degree days 2557  
Cooling Degree Days 8 1  
Month to date cooling degree days 2  
Year to date cooling degree days 20  
Growing Degree Days 23 (Base 50)    
Moisture  
Dew Point 29 °F    
Average Humidity 24    
Maximum Humidity 54    
Minimum Humidity 9    
Precipitation  
Precipitation 0.00 in 0.02 in 0.16 in (1960)
Month to date precipitation 0.04  
Year to date precipitation 1.91  
Snow  
Snow 0.00 in - - ()
Month to date snowfall  
Since 1 July snowfall  
Snow Depth -    
Sea Level Pressure  
Sea Level Pressure 29.63 in    
Wind  
Wind Speed 11 mph (WSW)    
Max Wind Speed 22 mph    
Max Gust Speed 31 mph    
Visibility 10 miles    
Events      
T = Trace of Precipitation, MM = Missing Value Source: NWS Daily Summary

Daily Weather History Graph

Daily Weather History Graph

Search for Another Location

Airport:

Trip Planner

Search our weather history database for the weather conditions in past years. The results will help you decide how hot, cold, wet, or windy it might be!

Date:

Astronomy

Apr. 02, 2012 Rise Set
Actual Time 7:34 AM CDT 8:09 PM CDT
Civil Twilight 7:10 AM CDT 8:33 PM CDT
Nautical Twilight 6:41 AM CDT 9:02 PM CDT
Astronomical Twilight 6:11 AM CDT 9:32 PM CDT
Moon 4:01 PM CDT (4/2) 4:33 AM CDT (4/2)
Length of Visible Light 13h 23m
Length of Day
12h 34m
Waxing Gibbous, 78% of the Moon is Illuminated
Apr 2
Waxing Gibbous
Apr 6
Full
Apr 13
Last Quarter
Apr 21
New
Apr 29
First Quarter

Hourly Weather History & Observations

Time (CDT) Temp. Dew Point Humidity Pressure Visibility Wind Dir Wind Speed Gust Speed Precip Events Conditions
12:15 AM 74.3 °F 44.4 °F 34% 29.63 in 10.0 mi South 9.2 mph - N/A   Clear
12:35 AM 73.6 °F 46.9 °F 39% 29.63 in 10.0 mi South 8.1 mph - N/A   Clear
12:55 AM 73.0 °F 48.7 °F 42% 29.62 in 10.0 mi South 10.4 mph - N/A   Clear
1:15 AM 72.7 °F 48.7 °F 43% 29.63 in 10.0 mi South 10.4 mph - N/A   Clear
1:55 AM 71.1 °F 51.4 °F 50% 29.63 in 10.0 mi South 10.4 mph - N/A   Clear
2:15 AM 70.2 °F 51.1 °F 51% 29.63 in 10.0 mi South 10.4 mph - N/A   Clear
2:35 AM 69.3 °F 50.9 °F 52% 29.63 in 10.0 mi South 8.1 mph - N/A   Clear
2:55 AM 68.2 °F 50.7 °F 54% 29.63 in 10.0 mi South 6.9 mph - N/A   Clear
3:15 AM 67.6 °F 47.8 °F 49% 29.63 in 10.0 mi South 8.1 mph - N/A   Clear
3:35 AM 67.3 °F 43.9 °F 43% 29.63 in 10.0 mi South 11.5 mph - N/A   Clear
3:55 AM 68.4 °F 40.8 °F 37% 29.62 in 10.0 mi South 16.1 mph - N/A   Clear
4:35 AM 67.5 °F 38.5 °F 35% 29.60 in 10.0 mi South 11.5 mph - N/A   Clear
4:55 AM 67.1 °F 37.8 °F 34% 29.60 in 10.0 mi South 11.5 mph - N/A   Clear
5:15 AM 66.6 °F 37.4 °F 34% 29.61 in 10.0 mi South 11.5 mph - N/A   Clear
5:35 AM 66.0 °F 37.4 °F 35% 29.61 in 10.0 mi SSW 10.4 mph - N/A   Clear
5:55 AM 65.8 °F 37.9 °F 36% 29.62 in 10.0 mi SSW 11.5 mph - N/A   Clear
6:15 AM 66.4 °F 38.5 °F 36% 29.62 in 10.0 mi SSW 12.7 mph - N/A   Clear
6:35 AM 66.6 °F 38.3 °F 35% 29.62 in 10.0 mi SSW 12.7 mph - N/A   Clear
6:55 AM 66.2 °F 38.8 °F 37% 29.63 in 10.0 mi SSW 11.5 mph - N/A   Clear
7:15 AM 66.2 °F 40.1 °F 38% 29.63 in 10.0 mi SSW 10.4 mph - N/A   Clear
7:35 AM 65.7 °F 41.2 °F 41% 29.64 in 10.0 mi SSW 9.2 mph - N/A   Clear
7:55 AM 64.6 °F 41.2 °F 42% 29.64 in 10.0 mi SSW 10.4 mph - N/A   Clear
8:15 AM 64.8 °F 41.9 °F 43% 29.65 in 10.0 mi SW 9.2 mph - N/A   Clear
8:35 AM 65.1 °F 42.6 °F 44% 29.65 in 10.0 mi WSW 4.6 mph - N/A   Clear
8:55 AM 66.4 °F 42.8 °F 42% 29.65 in 10.0 mi SW 5.8 mph - N/A   Clear
9:15 AM 68.4 °F 41.9 °F 38% 29.64 in 10.0 mi WSW 6.9 mph - N/A   Clear
9:35 AM 70.3 °F 39.2 °F 32% 29.64 in 10.0 mi SW 11.5 mph - N/A   Clear
9:55 AM 72.0 °F 34.0 °F 25% 29.64 in 10.0 mi West 12.7 mph - N/A   Clear
10:15 AM 73.8 °F 23.5 °F 15% 29.64 in 10.0 mi WSW 9.2 mph - N/A   Clear
10:35 AM 74.7 °F 21.4 °F 14% 29.64 in 10.0 mi WSW 6.9 mph - N/A   Clear
10:55 AM 76.1 °F 22.1 °F 13% 29.64 in 10.0 mi West 11.5 mph - N/A   Clear
11:15 AM 77.0 °F 23.0 °F 13% 29.64 in 10.0 mi WSW 8.1 mph - N/A   Clear
11:35 AM 77.4 °F 23.0 °F 13% 29.63 in 10.0 mi WSW 9.2 mph - N/A   Clear
11:55 AM 78.6 °F 21.2 °F 12% 29.63 in 10.0 mi SW 12.7 mph 18.4 mph N/A   Clear
12:15 PM 80.1 °F 19.9 °F 11% 29.63 in 10.0 mi West 11.5 mph 19.6 mph N/A   Clear
12:55 PM 80.8 °F 20.8 °F 11% 29.64 in 10.0 mi West 18.4 mph 28.8 mph N/A   Clear
1:15 PM 80.2 °F 23.5 °F 12% 29.63 in 10.0 mi WSW 11.5 mph 25.3 mph N/A   Clear
1:35 PM 80.4 °F 23.7 °F 12% 29.62 in 10.0 mi West 13.8 mph 26.5 mph N/A   Clear
1:55 PM 80.8 °F 22.1 °F 11% 29.62 in 10.0 mi SW 17.3 mph 23.0 mph N/A   Clear
2:15 PM 81.0 °F 21.0 °F 11% 29.61 in 10.0 mi WSW 19.6 mph 24.2 mph N/A   Clear
2:35 PM 80.6 °F 21.0 °F 11% 29.61 in 10.0 mi WSW 16.1 mph 24.2 mph N/A   Clear
2:55 PM 81.3 °F 21.7 °F 11% 29.61 in 10.0 mi SW 11.5 mph 21.9 mph N/A   Clear
3:15 PM 81.0 °F 21.0 °F 11% 29.60 in 10.0 mi WSW 17.3 mph 26.5 mph N/A   Clear
3:35 PM 81.5 °F 21.0 °F 11% 29.60 in 10.0 mi WSW 19.6 mph 25.3 mph N/A   Clear
3:55 PM 81.9 °F 21.0 °F 11% 29.60 in 10.0 mi West 18.4 mph 25.3 mph N/A   Clear
4:15 PM 82.0 °F 20.7 °F 10% 29.60 in 10.0 mi WSW 17.3 mph 25.3 mph N/A   Clear
4:35 PM 81.9 °F 20.8 °F 10% 29.60 in 10.0 mi West 21.9 mph 28.8 mph N/A   Clear
4:55 PM 81.7 °F 20.8 °F 11% 29.60 in 10.0 mi West 17.3 mph 29.9 mph N/A   Clear
5:15 PM 81.3 °F 20.1 °F 10% 29.60 in 10.0 mi WSW 21.9 mph 31.1 mph N/A   Clear
5:35 PM 80.8 °F 19.4 °F 10% 29.60 in 10.0 mi West 18.4 mph 25.3 mph N/A   Clear
5:55 PM 80.6 °F 17.4 °F 9% 29.61 in 10.0 mi West 16.1 mph 25.3 mph N/A   Clear
6:15 PM 80.1 °F 16.5 °F 9% 29.62 in 10.0 mi West 17.3 mph 24.2 mph N/A   Clear
6:35 PM 78.6 °F 17.6 °F 10% 29.62 in 10.0 mi WNW 17.3 mph 26.5 mph N/A   Clear
6:55 PM 77.0 °F 16.7 °F 10% 29.62 in 10.0 mi WNW 17.3 mph - N/A   Clear
7:35 PM 74.5 °F 14.7 °F 10% 29.64 in 10.0 mi WNW 15.0 mph 21.9 mph N/A   Clear
7:55 PM 73.0 °F 13.1 °F 10% 29.64 in 10.0 mi NW 15.0 mph 21.9 mph N/A   Clear
8:15 PM 71.4 °F 11.1 °F 10% 29.65 in 10.0 mi WNW 16.1 mph 21.9 mph N/A   Clear
8:35 PM 70.0 °F 10.2 °F 10% 29.66 in 10.0 mi WNW 12.7 mph - N/A   Clear
8:55 PM 68.5 °F 10.0 °F 10% 29.66 in 10.0 mi WNW 12.7 mph - N/A   Clear
9:15 PM 67.6 °F 10.4 °F 11% 29.68 in 10.0 mi WNW 11.5 mph - N/A   Clear
9:35 PM 66.4 °F 10.0 °F 11% 29.68 in 10.0 mi NW 11.5 mph - N/A   Clear
9:55 PM 65.1 °F 9.7 °F 11% 29.70 in 10.0 mi NW 10.4 mph - N/A   Clear
10:15 PM 63.9 °F 9.5 °F 12% 29.71 in 10.0 mi NW 10.4 mph - N/A   Clear
10:35 PM 62.8 °F 9.5 °F 12% 29.71 in 10.0 mi NW 10.4 mph - N/A   Clear
10:55 PM 62.2 °F 9.5 °F 13% 29.71 in 10.0 mi WNW 9.2 mph - N/A   Clear
11:15 PM 62.4 °F 9.5 °F 12% 29.72 in 10.0 mi WNW 9.2 mph - N/A   Clear
11:35 PM 62.8 °F 9.0 °F 12% 29.74 in 10.0 mi WNW 6.9 mph - N/A   Clear
11:55 PM 62.6 °F 8.4 °F 12% 29.74 in 10.0 mi WNW 9.2 mph - N/A   Clear